Temp
60 61 61 61 62 62 61 62 62 62 62 61 62 63 63 63 63 56 50 60 63 68 67 64 66 66 66 61 61 57 48 45 50 49 54 55 58 57 60 59 57 59 58 60 63
59 59 60 60 60 61 61 61 61 61 60 60 61 61 63 63 55 50 62 67 68 68 61 59 60 63 60 59 57 54 46 50 56 55 54 57 58 60 59 56 55 56 59 61 61
59 59 59 59 59 60 60 61 60 60 60 60 60 60 62 59 48 53 66 68 68 67 62 61 59 60 56 57 55 51 50 53 57 59 57 56 56 59 57 53 59 59 57 59 60
58 58 58 58 59 59 60 60 60 60 60 59 59 59 62 54 37 59 67 67 68 63 61 58 56 52 51 52 58 50 56 58 59 58 58 54 57 57 59 61 63 63 61 60 59
58 58 57 58 58 59 59 60 59 59 59 60 59 59 56 46 47 62 65 65 63 59 56 55 53 52 48 51 54 51 55 58 59 56 55 56 54 55 57 58 60 61 61 60 60
58 57 57 57 58 58 58 59 59 58 59 59 59 59 51 40 61 62 61 60 60 58 56 55 54 55 52 50 53 53 55 56 56 56 54 53 51 52 58 57 58 60 60 60 61
58 57 57 57 57 58 58 58 58 58 58 58 58 55 48 48 61 60 60 59 60 59 56 58 58 53 53 50 54 53 50 50 54 54 53 55 51 51 55 56 57 57 59 59 61
57 57 57 57 57 57 58 58 58 58 58 59 58 53 44 59 58 60 60 58 61 61 59 61 60 56 51 52 51 49 48 41 48 53 54 54 45 54 56 55 55 55 55 57 59
57 56 57 57 57 57 57 58 57 58 59 59 52 48 41 57 52 60 59 56 58 57 58 64 59 52 51 44 41 42 36 37 44 50 49 49 44 51 52 53 54 53 54 55 56
57 56 56 57 57 57 57 57 57 56 55 56 52 43 46 47 53 56 58 58 54 54 52 51 48 44 41 41 34 34 35 37 40 46 45 42 45 51 49 49 51 51 51 52 54
56 56 56 56 57 57 51 44 41 40 45 42 44 43 46 52 54 51 57 54 54 50 40 44 38 34 36 42 43 42 41 41 42 47 44 42 42 47 51 49 49 49 49 50 52
56 56 56 56 56 56 47 40 43 44 37 46 47 47 49 50 45 48 56 47 46 40 42 39 33 41 46 46 45 42 41 40 44 47 45 40 40 45 47 48 51 52 51 51 51
56 56 55 56 56 47 42 44 50 50 36 40 45 46 47 46 43 45 49 49 44 40 40 36 40 44 44 42 40 39 37 39 42 44 41 37 35 41 46 46 48 51 55 54 55
56 55 55 55 46 42 39 46 49 47 29 32 38 44 45 46 41 51 54 50 45 40 41 40 44 42 40 40 42 36 43 43 41 39 34 37 28 35 41 43 45 47 49 54 55
55 55 55 53 41 38 44 46 47 42 8 36 40 51 46 41 42 44 51 50 41 39 39 36 38 38 36 37 42 37 44 43 40 36 34 31 28 33 36 41 45 48 49 52 54
55 55 54 46 41 43 45 46 42 19 9 30 40 39 39 42 42 45 44 48 49 41 42 39 44 43 42 43 44 44 41 39 37 35 24 32 32 30 39 44 44 48 48 50 49
55 54 49 46 39 44 44 39 16 7 31 25 32 36 37 37 38 41 38 36 34 31 32 35 36 42 44 39 42 39 35 23 20 16 22 28 31 40 43 46 47 49 49 47 47
54 52 47 45 43 43 39 22 5 9 19 34 34 34 31 36 36 39 37 34 39 36 33 31 28 37 42 41 37 35 38 24 16 17 22 29 28 34 42 45 46 49 48 48 45
51 40 40 42 44 42 29 8 11 13 30 29 33 27 31 35 36 35 35 35 37 40 32 30 31 39 41 44 45 37 33 39 27 13 18 26 31 39 42 44 45 46 48 47 45
38 36 37 43 43 40 21 18 13 28 33 34 19 30 19 29 31 33 30 38 39 41 40 36 29 36 41 44 43 40 43 32 28 12 12 22 25 31 38 43 44 46 47 47 47
36 28 38 42 39 26 12 9 18 32 35 31 28 27 30 28 29 31 31 36 38 41 42 38 33 30 38 35 35 36 35 35 36 28 21 17 25 34 39 38 41 44 46 47 47
31 20 39 40 21 18 15 12 33 31 34 31 33 31 31 32 29 29 30 33 40 41 35 37 33 26 31 35 39 45 40 40 32 26 26 27 27 39 38 38 38 41 44 44 44
31 27 41 40 12 7 14 14 25 26 28 30 27 32 34 32 27 32 32 35 40 39 35 37 32 23 27 32 36 37 38 42 37 33 26 22 27 40 38 38 36 36 40 43 43
26 19 26 35 32 25 17 11 19 32 33 34 32 32 31 30 32 27 31 36 38 37 39 40 33 31 27 29 32 30 37 40 38 29 30 29 29 35 37 37 37 38 39 39 41
28 18 20 14 25 29 18 16 15 18 28 31 28 30 29 24 27 28 28 33 38 40 36 33 29 32 34 34 34 33 36 38 35 35 30 35 32 36 41 38 38 40 41 42 43
30 28 31 28 22 24 26 14 20 24 26 22 25 29 29 27 29 25 31 29 28 35 35 36 29 30 28 32 33 31 34 36 36 33 33 33 31 40 37 38 41 43 41 41 43
36 37 32 26 28 25 20 21 24 28 30 32 30 28 29 29 34 35 36 35 34 31 30 31 26 26 22 29 30 26 30 34 36 37 37 30 39 40 40 41 42 40 43 45 46
MSLP
1019.26 1019.01 1018.73 1018.42 1018.01 1017.73 1017.59 1017.33 1017.08 1016.68 1016.41 1016.20 1015.80 1015.58 1015.53 1015.81 1016.05 1015.90 1015.13 1013.94 1013.90 1013.46 1013.69 1013.45 1013.23 1013.24 1012.99 1013.62 1013.76 1014.01 1014.61 1014.68 1013.99 1013.58 1012.58 1012.13 1012.28 1012.32 1012.31 1012.89 1013.40 1013.73 1013.98 1014.20 1014.84
1019.28 1019.04 1018.68 1018.33 1017.98 1017.63 1017.41 1017.16 1016.90 1016.26 1016.10 1015.90 1015.81 1015.22 1015.23 1015.63 1016.09 1015.10 1013.14 1012.97 1013.13 1013.42 1013.61 1013.41 1013.20 1013.04 1013.18 1013.68 1013.97 1014.00 1014.31 1013.99 1013.14 1012.62 1012.24 1012.05 1012.17 1012.25 1012.59 1013.02 1013.42 1013.88 1014.24 1014.59 1015.17
1019.43 1019.14 1018.79 1018.32 1017.95 1017.60 1017.29 1016.83 1016.67 1016.31 1016.00 1015.62 1015.50 1015.00 1014.84 1015.42 1015.70 1012.75 1011.32 1011.87 1012.49 1013.08 1013.46 1013.45 1013.34 1013.47 1013.44 1013.68 1013.90 1013.79 1013.44 1013.28 1012.69 1012.30 1012.19 1012.11 1012.21 1012.30 1012.57 1013.20 1012.79 1013.01 1014.13 1014.85 1015.38
1019.44 1019.19 1018.79 1018.41 1018.05 1017.48 1017.04 1016.61 1016.29 1016.07 1015.86 1015.56 1014.96 1014.91 1014.61 1015.11 1014.56 1011.44 1010.97 1011.14 1012.05 1012.81 1013.50 1013.65 1013.56 1013.73 1013.71 1013.50 1013.49 1013.65 1012.86 1012.75 1012.57 1012.32 1012.29 1012.41 1012.27 1012.35 1012.40 1012.12 1011.99 1012.45 1013.28 1014.40 1015.08
1019.26 1019.07 1018.85 1018.55 1018.03 1017.32 1016.76 1016.31 1016.04 1015.63 1015.32 1014.77 1014.47 1013.96 1014.04 1014.40 1012.92 1011.76 1011.42 1011.05 1012.00 1012.78 1013.41 1013.63 1013.50 1013.55 1013.61 1013.37 1013.18 1013.17 1012.76 1012.72 1012.57 1012.58 1012.50 1012.56 1012.58 1012.70 1012.17 1012.14 1012.18 1012.66 1013.59 1014.11 1014.53
1019.17 1018.94 1018.77 1018.52 1017.98 1017.28 1016.63 1016.07 1015.81 1015.63 1015.27 1014.35 1013.95 1013.65 1013.62 1013.48 1011.88 1011.70 1011.82 1011.03 1011.83 1012.65 1013.18 1013.42 1013.19 1013.13 1013.19 1013.21 1012.93 1012.74 1012.87 1013.08 1012.95 1012.79 1012.66 1012.80 1012.90 1012.91 1012.22 1012.42 1012.85 1013.08 1013.44 1013.92 1014.19
1019.15 1018.85 1018.68 1018.34 1017.83 1017.23 1016.65 1016.04 1015.63 1015.37 1015.02 1014.58 1014.40 1014.48 1013.99 1012.59 1012.01 1011.89 1011.85 1011.34 1011.40 1012.11 1012.67 1013.16 1012.95 1012.97 1012.91 1013.21 1012.92 1012.94 1013.56 1013.77 1013.43 1013.19 1013.05 1012.98 1013.10 1012.99 1012.60 1012.82 1013.17 1013.47 1013.60 1013.92 1014.15
1019.04 1018.81 1018.59 1018.25 1017.71 1017.15 1016.49 1015.84 1015.24 1014.97 1014.89 1014.79 1014.39 1014.56 1013.87 1012.68 1012.74 1012.36 1011.90 1011.51 1011.47 1011.95 1012.26 1012.79 1012.84 1013.06 1013.09 1013.03 1013.24 1013.57 1013.89 1014.02 1013.53 1013.48 1013.32 1013.42 1013.06 1012.71 1012.83 1013.19 1013.58 1013.79 1013.97 1013.99 1014.08
1018.83 1018.67 1018.43 1018.09 1017.65 1017.00 1016.37 1015.64 1014.99 1014.46 1014.28 1014.32 1013.79 1013.24 1013.24 1012.84 1012.80 1012.09 1011.65 1011.51 1011.73 1012.28 1012.32 1012.74 1013.05 1013.30 1013.43 1013.50 1014.09 1014.00 1013.86 1014.06 1013.98 1013.72 1013.65 1013.83 1013.60 1012.96 1013.05 1013.47 1013.85 1014.02 1014.16 1014.26 1014.24
1018.71 1018.55 1018.22 1017.91 1017.56 1017.01 1016.19 1015.23 1014.29 1014.29 1013.87 1013.27 1014.09 1014.87 1013.83 1012.84 1012.27 1012.10 1011.74 1011.54 1011.90 1012.60 1012.75 1013.11 1013.76 1013.90 1014.00 1013.94 1013.53 1014.13 1014.33 1014.32 1014.22 1014.15 1014.23 1014.40 1013.94 1013.45 1013.53 1013.79 1014.00 1014.17 1014.30 1014.36 1014.19
1018.65 1018.40 1018.09 1017.79 1017.47 1016.97 1016.51 1015.67 1015.33 1015.22 1014.95 1014.74 1014.12 1014.09 1013.49 1013.16 1012.48 1012.29 1011.67 1011.61 1012.11 1012.96 1013.53 1013.61 1014.38 1014.33 1014.30 1014.18 1013.92 1013.92 1013.99 1014.14 1014.17 1014.15 1014.60 1014.71 1014.83 1014.21 1013.88 1014.09 1014.11 1014.23 1014.28 1014.12 1013.86
1018.64 1018.36 1018.07 1017.79 1017.46 1017.10 1017.13 1017.23 1017.10 1016.98 1015.67 1014.52 1013.72 1013.46 1013.38 1013.85 1012.41 1012.16 1012.35 1012.67 1012.85 1013.31 1013.86 1014.63 1014.32 1014.60 1014.64 1014.53 1014.42 1014.48 1014.22 1014.50 1014.34 1014.37 1015.01 1015.15 1015.10 1014.23 1014.01 1013.77 1013.60 1013.60 1013.72 1013.67 1013.59
1018.66 1018.31 1018.11 1017.73 1017.46 1017.50 1017.70 1017.68 1016.91 1016.61 1016.02 1014.25 1013.64 1013.17 1012.92 1014.02 1013.03 1012.20 1012.38 1012.17 1012.42 1013.32 1013.76 1014.01 1014.06 1014.16 1014.57 1014.77 1014.94 1015.07 1014.89 1014.88 1014.68 1014.60 1015.54 1015.81 1015.35 1014.52 1013.37 1013.25 1013.01 1012.78 1012.73 1012.79 1012.84
1018.62 1018.30 1018.09 1017.74 1018.03 1018.13 1017.81 1017.48 1016.85 1016.57 1016.12 1014.40 1013.43 1012.92 1013.09 1013.47 1013.20 1012.02 1011.91 1011.59 1012.43 1013.35 1013.99 1014.15 1013.92 1014.09 1014.28 1014.57 1014.78 1015.11 1015.16 1015.34 1015.49 1015.64 1016.70 1016.69 1015.69 1014.72 1013.35 1013.24 1012.83 1012.30 1012.35 1012.17 1012.11
1018.66 1018.44 1018.25 1018.02 1018.53 1018.52 1018.23 1017.38 1016.98 1016.84 1016.60 1014.67 1013.54 1012.87 1012.89 1013.27 1013.29 1012.21 1012.13 1011.78 1012.14 1013.04 1014.35 1013.95 1014.01 1014.08 1014.43 1014.30 1014.62 1015.16 1015.18 1015.95 1016.81 1017.28 1017.48 1017.17 1017.47 1013.87 1013.30 1012.75 1012.37 1011.74 1011.43 1011.23 1011.22
1018.70 1018.51 1018.49 1018.68 1018.70 1018.58 1018.06 1017.44 1017.48 1018.14 1017.09 1015.19 1014.13 1013.55 1013.63 1012.95 1012.87 1013.24 1012.73 1012.66 1012.76 1013.48 1013.89 1013.99 1013.86 1013.86 1013.90 1014.31 1014.55 1015.25 1015.93 1017.01 1018.04 1018.39 1018.57 1017.21 1017.11 1013.98 1012.75 1011.59 1011.36 1010.86 1010.86 1011.01 1011.11
1018.59 1018.43 1018.60 1018.93 1019.01 1018.44 1018.17 1018.26 1019.11 1019.41 1017.88 1016.88 1015.52 1014.42 1013.56 1012.80 1013.01 1013.17 1013.52 1013.17 1013.05 1013.48 1013.78 1014.15 1014.33 1013.88 1013.73 1014.35 1014.98 1015.22 1016.13 1018.13 1019.28 1019.67 1018.56 1017.70 1016.96 1013.09 1012.16 1011.08 1011.00 1010.84 1010.94 1010.87 1010.87
1018.42 1018.41 1018.89 1019.17 1018.95 1018.57 1018.72 1019.89 1020.85 1020.76 1019.14 1017.85 1016.77 1015.36 1014.67 1014.18 1014.05 1013.39 1013.24 1013.28 1013.09 1012.66 1013.16 1013.66 1014.37 1013.51 1013.25 1013.30 1013.84 1014.94 1015.37 1016.80 1018.47 1019.55 1019.08 1018.29 1016.11 1012.88 1011.76 1010.83 1010.64 1010.62 1010.73 1010.84 1010.89
1018.66 1019.23 1019.41 1019.32 1019.05 1018.89 1019.90 1021.64 1022.15 1021.34 1019.88 1018.50 1016.64 1016.19 1015.17 1014.29 1014.00 1013.66 1013.54 1013.22 1013.06 1013.24 1013.20 1013.34 1013.32 1012.78 1012.79 1012.94 1013.39 1014.76 1015.06 1015.58 1017.28 1019.86 1019.24 1017.45 1015.27 1013.17 1011.39 1010.63 1010.55 1010.44 1010.52 1010.74 1010.91
1019.70 1019.89 1019.91 1019.48 1019.37 1019.65 1021.15 1022.87 1022.37 1021.01 1019.94 1018.78 1018.10 1016.72 1015.89 1015.52 1014.71 1014.53 1014.06 1012.85 1012.78 1012.76 1013.14 1013.46 1013.68 1013.28 1013.19 1013.15 1013.52 1013.40 1014.02 1015.37 1016.41 1018.36 1018.52 1016.82 1015.67 1013.44 1011.85 1011.24 1010.93 1010.63 1010.50 1010.66 1010.89
1020.21 1020.68 1020.18 1019.69 1019.77 1021.24 1023.03 1023.59 1022.53 1021.01 1020.22 1019.57 1018.53 1017.50 1016.69 1016.32 1015.99 1014.87 1014.28 1013.74 1012.94 1012.79 1013.18 1013.72 1014.31 1014.29 1013.62 1013.06 1012.87 1013.63 1013.74 1014.25 1014.90 1016.20 1016.65 1016.61 1014.57 1012.65 1011.90 1011.75 1011.49 1011.13 1010.87 1010.92 1011.04
1020.58 1021.63 1020.60 1020.17 1021.38 1023.19 1023.92 1023.47 1022.50 1021.39 1020.33 1019.75 1018.91 1017.84 1016.97 1016.59 1016.06 1015.29 1014.24 1013.94 1013.35 1013.05 1013.41 1013.95 1014.25 1014.33 1013.58 1013.19 1012.78 1012.61 1012.78 1013.43 1014.06 1015.49 1015.87 1015.73 1013.81 1012.07 1012.06 1011.91 1011.64 1011.29 1011.24 1011.28 1011.33
1021.13 1021.50 1020.83 1020.66 1022.16 1023.79 1024.06 1023.74 1022.79 1021.64 1020.59 1019.95 1019.20 1018.24 1017.30 1016.82 1016.50 1015.89 1015.50 1014.80 1014.05 1013.88 1014.03 1013.89 1014.11 1014.33 1014.26 1014.06 1013.14 1012.56 1012.47 1012.82 1013.80 1014.53 1014.85 1015.29 1013.10 1012.06 1012.14 1011.91 1011.67 1011.59 1011.57 1011.72 1011.77
1021.86 1022.48 1022.04 1021.57 1022.30 1023.20 1024.38 1024.10 1022.95 1021.39 1020.52 1019.83 1019.42 1018.73 1017.90 1017.29 1016.82 1016.42 1015.68 1015.08 1014.84 1014.54 1014.42 1014.19 1013.91 1013.42 1012.98 1013.06 1012.82 1012.70 1012.23 1012.47 1013.25 1014.27 1013.76 1013.75 1012.91 1012.19 1011.99 1012.14 1012.10 1011.88 1011.82 1012.01 1012.13
1021.77 1022.61 1022.72 1022.77 1022.98 1023.22 1023.84 1023.71 1022.96 1022.00 1020.83 1019.94 1019.45 1019.12 1018.72 1017.92 1017.16 1016.80 1016.30 1015.76 1014.89 1014.72 1014.93 1014.82 1014.01 1013.77 1013.25 1013.38 1013.15 1012.54 1012.60 1012.67 1012.86 1013.17 1013.74 1011.97 1012.97 1012.77 1012.08 1012.31 1012.20 1011.92 1011.97 1012.10 1012.20
1021.36 1022.12 1022.44 1022.70 1022.92 1023.21 1023.28 1023.08 1022.45 1021.44 1020.98 1020.02 1019.46 1018.88 1018.90 1018.52 1017.77 1017.31 1016.77 1016.45 1015.97 1015.31 1015.14 1014.96 1014.57 1014.38 1013.66 1013.74 1013.40 1012.94 1012.73 1012.73 1013.24 1013.30 1013.32 1012.62 1012.36 1012.10 1012.00 1011.97 1012.03 1012.04 1012.22 1012.19 1012.25
1020.69 1021.13 1021.48 1022.06 1022.46 1022.77 1022.28 1021.56 1021.22 1020.82 1019.87 1019.47 1019.23 1018.91 1018.33 1017.57 1017.23 1017.03 1016.89 1016.80 1016.45 1015.92 1015.50 1015.44 1015.21 1015.42 1015.46 1014.57 1013.98 1013.45 1012.50 1012.56 1012.35 1012.35 1011.85 1012.12 1010.29 1011.51 1011.69 1011.79 1011.60 1011.71 1012.03 1012.06 1012.10
Wind_Speed
16 17 17 19 19 19 19 18 19 17 16 21 17 18 11 9 8 5 8 11 8 13 5 4 3 3 4 2 2 3 4 3 6 6 6 3 5 1 2 7 1 2 4 0 16
15 17 17 18 19 19 18 18 19 17 15 19 21 20 12 6 4 10 11 14 11 5 2 4 3 0 4 1 2 4 5 8 6 5 4 5 4 8 5 4 3 3 4 10 16
16 17 18 18 19 19 19 18 18 18 15 17 23 22 13 6 4 11 16 24 12 7 3 2 3 5 5 5 4 4 7 5 3 3 1 2 3 5 7 4 8 11 9 12 14
15 17 19 19 21 20 20 19 18 18 18 13 19 17 13 5 9 3 9 12 15 8 5 4 4 6 5 8 6 4 6 4 2 1 1 2 1 5 7 7 3 7 15 14 15
13 15 17 18 20 21 20 18 18 19 21 18 16 16 9 4 9 4 7 12 7 7 6 6 6 6 7 6 6 3 2 3 4 2 2 1 3 4 7 2 3 11 14 16 16
12 14 16 18 19 21 20 20 17 19 19 19 17 12 1 9 4 5 5 11 8 6 6 6 6 5 5 4 7 6 5 1 2 3 2 2 2 2 3 4 5 11 14 14 16
14 14 16 17 19 21 21 18 17 15 17 18 13 6 8 13 5 5 7 3 8 6 5 3 3 3 5 4 4 5 5 2 6 2 3 5 7 6 2 2 7 8 8 9 10
13 14 15 16 18 19 22 21 19 17 16 16 12 4 7 4 9 5 3 3 6 4 5 4 3 2 2 2 4 7 4 4 2 8 3 5 8 6 5 6 8 7 6 7 9
13 14 15 16 16 20 21 23 19 19 16 15 5 3 7 6 5 5 2 5 7 1 3 3 2 3 1 7 4 1 5 6 3 7 3 5 5 3 2 6 8 7 7 6 5
13 13 14 15 15 18 23 25 18 14 9 2 2 2 4 5 4 5 1 6 5 4 4 5 3 2 1 5 12 7 5 2 6 4 3 3 10 6 0 5 9 7 7 7 8
13 13 15 15 14 17 12 6 7 4 6 8 4 4 4 6 2 5 1 4 5 4 4 3 5 8 5 3 2 6 5 6 4 3 4 5 6 10 6 5 7 7 8 9 11
12 13 13 14 12 13 4 4 4 2 9 10 13 5 4 7 4 5 6 6 6 5 6 4 7 6 6 4 4 5 4 4 2 3 4 3 8 11 8 7 8 10 9 10 7
11 12 13 12 10 4 3 7 5 3 5 6 5 4 3 3 8 12 12 6 5 6 6 6 2 10 7 5 6 4 4 2 2 4 1 3 7 9 6 5 7 9 10 8 11
10 11 12 8 4 4 2 9 4 1 3 5 3 4 4 5 6 2 9 4 4 8 6 3 3 10 5 6 7 7 7 1 5 5 4 1 7 7 6 8 7 10 10 13 13
10 11 9 5 1 3 6 7 6 2 6 7 1 1 4 7 4 1 4 5 10 10 8 6 7 11 4 6 7 5 7 8 3 2 4 2 4 8 1 7 8 10 13 15 13
9 11 3 4 2 3 7 5 3 8 6 7 5 3 5 6 5 3 2 3 3 6 1 2 1 4 8 3 7 8 7 7 4 3 3 6 6 5 6 7 4 6 4 7 8
10 9 3 1 2 5 5 3 7 5 7 8 5 7 8 2 5 8 2 5 5 7 6 4 2 1 4 6 3 3 7 3 3 1 8 4 5 9 7 8 6 6 7 5 6
9 5 4 2 5 4 4 8 7 5 5 4 7 9 3 2 5 8 6 5 5 1 3 6 4 9 5 7 8 8 10 7 8 5 4 1 9 8 6 9 8 7 6 5 3
6 3 3 4 5 2 7 6 8 6 4 7 10 4 3 4 1 2 6 7 8 6 4 5 5 2 2 4 9 6 7 4 7 3 3 5 8 9 9 10 6 7 5 4 3
3 2 3 7 4 3 6 4 3 3 4 3 1 3 4 9 5 5 5 5 7 11 3 2 1 1 3 3 4 6 8 3 2 5 4 5 5 6 5 7 5 6 5 4 3
4 4 4 6 4 6 4 7 5 5 3 3 4 6 4 3 1 6 6 2 3 7 10 4 1 4 5 10 14 5 7 4 5 5 6 2 7 8 7 3 7 7 6 5 4
3 3 4 4 5 0 1 5 4 5 3 4 5 6 5 3 3 4 4 2 3 5 5 6 3 5 8 1 4 15 10 13 6 5 2 2 7 4 6 6 7 7 6 1 0
2 1 3 2 2 3 6 4 3 3 3 2 4 3 3 3 3 1 5 7 9 8 7 7 6 2 1 3 4 14 8 15 4 3 7 6 8 3 5 7 3 2 5 4 3
4 2 4 1 1 4 2 4 5 4 6 4 3 4 4 3 1 4 5 4 3 2 6 6 4 7 8 3 5 7 15 16 19 8 11 9 3 4 2 4 4 5 6 4 3
3 4 5 2 3 3 2 3 2 4 3 2 2 2 4 4 4 3 2 5 4 7 6 2 3 7 8 6 4 8 12 15 14 18 13 22 11 8 10 4 4 4 6 5 4
5 4 2 2 2 4 5 4 4 3 3 6 4 3 2 4 4 5 5 1 7 4 1 3 1 7 2 6 7 3 5 17 17 11 10 13 11 7 0 4 6 7 2 2 4
1 1 4 3 3 4 6 7 6 3 6 7 3 2 7 7 4 10 10 6 6 3 2 1 2 4 3 4 2 4 13 16 14 16 21 15 25 5 7 9 9 3 7 7 7
Wind_Direction
334 322 317 312 307 299 296 299 298 308 306 303 308 263 241 246 267 242 225 219 198 244 279 296 286 225 86 356 159 162 81 215 217 162 242 137 180 109 119 122 162 130 152 359 133
351 347 332 320 315 306 298 294 300 311 307 302 284 294 230 215 243 247 230 222 221 231 256 203 243 25 120 158 254 156 146 220 204 202 237 191 191 163 144 138 206 149 53 119 136
352 345 344 339 326 316 300 298 296 294 301 298 311 290 211 140 281 243 210 214 195 185 242 214 126 148 169 147 214 198 180 211 266 243 302 261 195 177 127 236 214 189 154 153 154
349 348 346 340 334 324 310 300 299 305 294 290 305 294 200 136 217 218 143 164 199 151 156 173 152 155 179 181 183 197 218 172 277 249 84 251 140 193 195 215 265 186 158 154 167
338 343 342 338 334 330 317 302 299 310 306 295 296 304 182 202 236 275 151 126 117 131 181 185 163 153 187 190 139 180 141 186 239 234 232 310 259 249 245 291 68 132 154 172 179
324 330 334 336 336 335 328 311 292 302 309 305 299 317 284 233 252 186 180 128 133 144 173 179 200 206 164 203 170 181 163 307 288 262 184 205 238 32 292 128 128 157 174 179 184
315 315 319 328 338 336 334 322 298 302 309 314 290 304 297 229 344 193 175 190 147 152 149 210 206 192 137 143 205 125 118 191 244 212 243 156 279 219 263 148 169 193 189 185 192
313 316 308 316 329 334 332 327 306 301 296 303 291 181 238 228 317 233 206 98 112 143 129 164 204 143 178 127 50 122 112 180 249 158 249 148 258 257 193 162 207 208 212 203 199
325 313 307 309 324 329 327 319 301 290 292 292 306 74 277 326 223 253 201 135 118 105 123 120 167 174 120 129 83 239 195 172 311 208 138 177 258 244 157 179 223 225 225 231 241
333 331 314 310 314 325 326 314 289 297 310 293 99 51 262 295 168 278 10 119 113 126 76 95 71 142 88 179 194 169 135 163 183 207 177 190 250 263 100 183 225 233 242 234 239
339 329 319 318 319 331 340 342 14 15 17 306 282 218 267 324 296 227 118 46 81 97 150 141 125 201 210 123 53 135 138 157 182 182 166 244 256 261 272 252 257 242 233 240 239
334 332 328 326 328 339 11 27 330 259 298 269 260 244 242 296 256 208 192 147 175 161 129 95 202 179 165 224 78 43 132 174 132 112 166 288 268 263 245 235 217 231 236 234 249
328 328 327 324 331 22 330 355 285 248 287 294 227 224 156 55 323 187 182 163 139 134 179 170 225 157 159 174 161 170 151 169 127 85 243 333 289 263 258 235 234 238 233 234 227
331 331 333 327 27 321 342 314 294 90 310 290 358 255 107 80 281 317 204 159 122 174 129 203 153 169 152 190 166 216 156 59 54 71 236 51 275 272 251 258 251 253 237 239 236
355 345 353 58 239 32 288 305 297 28 16 307 263 216 163 141 311 308 337 355 149 146 149 208 167 146 147 187 140 200 155 174 178 152 43 232 281 264 249 275 263 243 237 243 244
335 340 22 359 39 274 309 322 352 44 272 336 321 239 202 172 146 291 115 356 39 106 79 87 138 158 171 144 144 147 87 65 71 106 261 196 203 221 202 201 233 255 265 268 261
320 322 93 101 297 309 325 20 34 104 334 327 347 338 317 136 205 176 241 187 158 158 171 119 192 263 149 99 103 136 126 50 15 11 235 325 189 259 279 254 220 261 285 320 328
313 79 18 45 299 325 38 47 70 247 276 324 338 298 276 186 236 208 199 225 281 24 114 150 205 174 189 169 170 174 171 154 182 201 223 22 235 248 239 288 272 253 257 278 315
80 12 38 328 327 23 65 50 201 208 283 340 335 337 313 238 16 255 222 232 182 227 175 163 258 92 137 127 145 201 211 152 106 41 65 223 291 286 288 279 270 274 287 259 202
67 46 339 327 352 34 72 249 225 241 333 324 70 306 1 7 212 208 195 234 217 190 54 90 238 113 151 116 29 188 148 152 24 134 246 273 278 249 309 283 296 285 269 245 219
53 43 277 338 55 46 140 230 291 298 334 318 292 291 270 312 212 261 213 319 219 190 182 108 77 314 131 205 183 159 190 206 130 156 174 206 257 221 241 280 290 286 273 235 246
87 34 299 31 52 228 99 194 312 285 262 253 273 268 232 206 229 276 242 338 261 136 206 158 151 191 200 264 264 199 203 203 198 199 221 150 270 206 240 279 255 267 291 235 182
83 253 322 73 109 317 313 298 245 307 287 315 283 281 325 302 317 68 342 325 8 171 172 159 207 147 261 343 329 199 190 192 154 100 198 151 254 263 209 62 24 93 57 28 30
86 15 332 7 158 142 242 288 310 267 282 260 256 303 307 296 81 307 356 329 75 9 10 190 206 223 226 124 132 209 204 195 202 207 223 232 244 313 281 98 66 87 100 89 74
65 245 186 232 259 201 92 168 272 334 273 274 325 215 315 303 327 279 298 319 268 193 148 210 277 219 215 220 176 185 219 211 207 212 195 239 249 249 284 191 184 108 124 121 130
141 160 158 208 157 154 206 236 219 256 211 281 216 317 218 250 261 302 353 147 254 347 88 168 259 2 221 185 213 219 204 198 223 232 246 252 262 218 57 224 230 220 163 185 183
143 72 123 238 210 199 216 213 224 169 265 231 269 318 311 262 258 246 259 249 263 223 211 230 154 105 306 37 55 234 211 212 211 205 213 227 242 172 223 226 243 228 189 207 201